H1 CPF 2 NER 2023 3 1 9 060 01 glonass143 H2 2007501 9143 46805 2023 3 1 0 0 0 2023 3 4 23 45 0 900 1 1 0 0 0 1 H9 10 0 60004 0.00000 0 -12341874.447 -15201466.810 16345742.126 10 0 60004 900.00000 0 -13011541.235 -16948349.920 13928034.252 10 0 60004 1800.00000 0 -13690956.567 -18349744.245 11239703.969 10 0 60004 2700.00000 0 -14323129.266 -19386818.433 8332949.486 10 0 60004 3600.00000 0 -14850167.803 -20053811.147 5264234.409 10 0 60004 4500.00000 0 -15215881.177 -20358071.951 2093190.049 10 0 60004 5400.00000 0 -15368324.378 -20319564.313 -1118546.062 10 0 60004 6300.00000 0 -15262180.033 -19969852.077 -4308532.486 10 0 60004 7200.00000 0 -14860874.578 -19350612.701 -7414742.996 10 0 60004 8100.00000 0 -14138338.445 -18511740.584 -10376778.099 10 0 60004 9000.00000 0 -13080334.712 -17509121.263 -13137044.661 10 0 60004 9900.00000 0 -11685299.035 -16402171.095 -15641880.016 10 0 60004 10800.00000 0 -9964654.325 -15251246.961 -17842598.205 10 0 60004 11700.00000 0 -7942585.913 -14115035.708 -19696437.756 10 0 60004 12600.00000 0 -5655285.688 -13048033.809 -21167392.513 10 0 60004 13500.00000 0 -3149696.045 -12098223.485 -22226909.579 10 0 60004 14400.00000 0 -481805.388 -11305043.030 -22854441.171 10 0 60004 15300.00000 0 2285434.370 -10697736.430 -23037840.126 10 0 60004 16200.00000 0 5084482.175 -10294151.119 -22773591.886 10 0 60004 17100.00000 0 7845775.937 -10100033.842 -22066878.876 10 0 60004 18000.00000 0 10500388.194 -10108853.492 -20931476.374 10 0 60004 18900.00000 0 12982659.643 -10302157.704 -19389482.097 10 0 60004 19800.00000 0 15232701.785 -10650447.558 -17470884.790 10 0 60004 20700.00000 0 17198665.346 -11114533.029 -15212980.159 10 0 60004 21600.00000 0 18838680.881 -11647311.600 -12659645.365 10 0 60004 22500.00000 0 20122391.581 -12195894.729 -9860485.995 10 0 60004 23400.00000 0 21032015.238 -12703992.125 -6869871.997 10 0 60004 24300.00000 0 21562892.001 -13114452.948 -3745881.256 10 0 60004 25200.00000 0 21723496.017 -13371856.336 -549171.352 10 0 60004 26100.00000 0 21534911.491 -13425041.597 2658198.413 10 0 60004 27000.00000 0 21029796.148 -13229470.827 5813971.665 10 0 60004 27900.00000 0 20250876.528 -12749323.860 8856902.720 10 0 60004 28800.00000 0 19249039.127 -11959236.661 11727943.815 10 0 60004 29700.00000 0 18081098.247 -10845609.339 14371388.730 10 0 60004 30600.00000 0 16807334.735 -9407428.004 16735950.726 10 0 60004 31500.00000 0 15488909.264 -7656565.114 18775754.080 10 0 60004 32400.00000 0 14185258.718 -5617544.728 20451220.414 10 0 60004 33300.00000 0 12951584.741 -3326781.343 21729833.108 10 0 60004 34200.00000 0 11836539.411 -831322.886 22586765.510 10 0 60004 35100.00000 0 10880204.583 1812851.070 23005361.236 10 0 60004 36000.00000 0 10112449.066 4542906.413 22977457.641 10 0 60004 36900.00000 0 9551732.020 7291521.901 22503546.333 10 0 60004 37800.00000 0 9204402.307 9989449.796 21592767.575 10 0 60004 38700.00000 0 9064522.956 12568164.587 20262738.361 10 0 60004 39600.00000 0 9114227.959 14962490.676 18539216.965 10 0 60004 40500.00000 0 9324596.436 17113100.656 16455609.769 10 0 60004 41400.00000 0 9657007.479 18968780.767 14052329.144 10 0 60004 42300.00000 0 10064918.734 20488369.511 11376014.100 10 0 60004 43200.00000 0 10495993.773 21642288.737 8478628.201 10 0 60004 44100.00000 0 10894488.366 22413603.344 5416451.790 10 0 60004 45000.00000 0 11203794.554 22798565.257 2248988.001 10 0 60004 45900.00000 0 11369034.435 22806619.060 -962196.105 10 0 60004 46800.00000 0 11339593.207 22459869.214 -4154670.367 10 0 60004 47700.00000 0 11071483.372 21792031.671 -7266360.357 10 0 60004 48600.00000 0 10529439.000 20846914.450 -10236759.811 10 0 60004 49500.00000 0 9688650.336 19676491.790 -13008112.359 10 0 60004 50400.00000 0 8536064.283 18338653.617 -15526538.884 10 0 60004 51300.00000 0 7071194.691 16894725.773 -17743088.091 10 0 60004 52200.00000 0 5306407.185 15406865.914 -19614689.585 10 0 60004 53100.00000 0 3266665.487 13935445.060 -21104990.850 10 0 60004 54000.00000 0 988748.903 12536525.068 -22185062.045 10 0 60004 54900.00000 0 -1480027.183 11259537.890 -22833955.278 10 0 60004 55800.00000 0 -4083535.135 10145263.775 -23039107.925 10 0 60004 56700.00000 0 -6758932.032 9224192.647 -22796582.687 10 0 60004 57600.00000 0 -9439043.149 8515336.653 -22111140.148 10 0 60004 58500.00000 0 -12054933.352 8025542.784 -20996142.781 10 0 60004 59400.00000 0 -14538560.111 7749333.439 -19473292.482 10 0 60004 60300.00000 0 -16825398.404 7669280.617 -17572206.797 10 0 60004 61200.00000 0 -18856928.888 7756897.080 -15329842.027 10 0 60004 62100.00000 0 -20582886.406 7974006.116 -12789774.288 10 0 60004 63000.00000 0 -21963175.768 8274531.469 -10001352.319 10 0 60004 63900.00000 0 -22969375.547 8606631.322 -7018738.397 10 0 60004 64800.00000 0 -23585767.784 8915085.718 -3899855.932 10 0 60004 65700.00000 0 -23809851.323 9143836.137 -705264.204 10 0 60004 66600.00000 0 -23652317.998 9238569.490 2503017.741 10 0 60004 67500.00000 0 -23136493.530 9149236.892 5662715.010 10 0 60004 68400.00000 0 -22297267.271 8832400.407 8712505.046 10 0 60004 69300.00000 0 -21179556.452 8253308.150 11593206.402 10 0 60004 70200.00000 0 -19836369.921 7387609.673 14248925.014 10 0 60004 71100.00000 0 -18326553.023 6222638.689 16628135.814 10 0 60004 72000.00000 0 -16712308.444 4758208.381 18684678.901 10 0 60004 72900.00000 0 -15056596.913 3006884.962 20378651.371 10 0 60004 73800.00000 0 -13420526.452 993726.911 21677177.982 10 0 60004 74700.00000 0 -11860839.042 -1244500.447 22555046.259 10 0 60004 75600.00000 0 -10427599.331 -3660603.570 22995194.197 10 0 60004 76500.00000 0 -9162181.384 -6198680.714 22989041.510 10 0 60004 77400.00000 0 -8095637.007 -8796213.108 22536658.155 10 0 60004 78300.00000 0 -7247513.256 -11386441.717 21646766.833 10 0 60004 79200.00000 0 -6625168.017 -13900932.060 20336579.106 10 0 60004 80100.00000 0 -6223611.930 -16272221.443 18631467.774 10 0 60004 81000.00000 0 -6025882.871 -18436439.380 16564481.194 10 0 60004 81900.00000 0 -6003937.068 -20335792.685 14175708.153 10 0 60004 82800.00000 0 -6120019.140 -21920811.960 11511504.892 10 0 60004 83700.00000 0 -6328453.181 -23152265.853 8623598.618 10 0 60004 84600.00000 0 -6577779.039 -24002663.015 5568084.468 10 0 60004 85500.00000 0 -6813143.215 -24457278.735 2404335.245 10 0 60005 0.00000 0 -6978842.698 -24514663.087 -806154.514 10 0 60005 900.00000 0 -7020913.473 -24186609.134 -4000969.028 10 0 60005 1800.00000 0 -6889653.007 -23497582.596 -7117988.071 10 0 60005 2700.00000 0 -6541969.215 -22483637.242 -10096601.452 10 0 60005 3600.00000 0 -5943455.134 -21190861.835 -12878892.528 10 0 60005 4500.00000 0 -5070100.484 -19673424.497 -15410768.761 10 0 60005 5400.00000 0 -3909566.642 -17991297.270 -17643016.522 10 0 60005 6300.00000 0 -2461970.103 -16207756.938 -19532259.381 10 0 60005 7200.00000 0 -740140.341 -14386767.527 -21041801.117 10 0 60005 8100.00000 0 1230659.798 -12590354.507 -22142337.282 10 0 60005 9000.00000 0 3413540.401 -10876080.762 -22812521.819 10 0 60005 9900.00000 0 5761284.632 -9294729.816 -23039378.158 10 0 60005 10800.00000 0 8218089.173 -7888292.760 -22818547.331 10 0 60005 11700.00000 0 10721673.121 -6688342.360 -22154368.712 10 0 60005 12600.00000 0 13205668.090 -5714861.385 -21059792.175 10 0 60005 13500.00000 0 15602190.563 -4975573.104 -19556123.591 10 0 60005 14400.00000 0 17844489.993 -4465800.749 -17672608.676 10 0 60005 15300.00000 0 19869562.797 -4168860.614 -15445863.241 10 0 60005 16200.00000 0 21620623.863 -4056971.080 -12919160.796 10 0 60005 17100.00000 0 23049332.948 -4092638.212 -10141591.176 10 0 60005 18000.00000 0 24117683.460 -4230458.612 -7167106.444 10 0 60005 18900.00000 0 24799475.216 -4419262.630 -4053472.557 10 0 60005 19800.00000 0 25081310.037 -4604506.743 -861147.157 10 0 60005 20700.00000 0 24963069.016 -4730813.426 2347894.542 10 0 60005 21600.00000 0 24457851.997 -4744550.601 5511362.809 10 0 60005 22500.00000 0 23591382.331 -4596341.199 8567861.857 10 0 60005 23400.00000 0 22400902.347 -4243396.270 11458080.047 10 0 60005 24300.00000 0 20933606.290 -3651572.671 14125938.709 10 0 60005 25200.00000 0 19244676.680 -2797067.931 16519677.354 10 0 60005 26100.00000 0 17395006.501 -1667680.257 18592854.450 10 0 60005 27000.00000 0 15448702.544 -263579.865 20305244.709 10 0 60005 27900.00000 0 13470474.045 1402441.740 21623616.014 10 0 60005 28800.00000 0 11523015.367 3305256.083 22522371.389 10 0 60005 29700.00000 0 9664491.426 5408205.069 22984044.106 10 0 60005 30600.00000 0 7946230.088 7664399.043 22999636.689 10 0 60005 31500.00000 0 6410717.088 10018452.869 22568797.439 10 0 60005 32400.00000 0 5089976.352 12408589.120 21699831.034 10 0 60005 33300.00000 0 4004402.564 14769022.166 20409542.691 10 0 60005 34200.00000 0 3162094.116 17032525.000 18722918.407 10 0 60005 35100.00000 0 2558713.730 19133072.868 16672646.803 10 0 60005 36000.00000 0 2177882.047 21008454.130 14298491.038 10 0 60005 36900.00000 0 1992087.239 22602739.799 11646522.246 10 0 60005 37800.00000 0 1964071.931 23868508.660 8768228.707 10 0 60005 38700.00000 0 2048638.558 24768734.780 5719517.580 10 0 60005 39600.00000 0 2194796.466 25278258.014 2559628.416 10 0 60005 40500.00000 0 2348159.389 25384775.484 -650020.347 10 0 60005 41400.00000 0 2453491.168 25089312.042 -3847029.161 10 0 60005 42300.00000 0 2457291.041 24406149.674 -6969235.513 10 0 60005 43200.00000 0 2310308.077 23362218.691 -9955928.073 10 0 60005 44100.00000 0 1969877.209 21995976.307 -12749032.491 10 0 60005 45000.00000 0 1401976.912 20355819.954 -15294245.103 10 0 60005 45900.00000 0 582920.420 18498102.253 -17542091.963 10 0 60005 46800.00000 0 -499392.032 16484831.322 -19448892.320 10 0 60005 47700.00000 0 -1844713.769 14381153.189 -20977607.695 10 0 60005 48600.00000 0 -3440217.994 12252721.975 -22098560.204 10 0 60005 49500.00000 0 -5260800.614 10163067.942 -22790006.515 10 0 60005 50400.00000 0 -7269907.709 8171073.259 -23038556.711 10 0 60005 51300.00000 0 -9420853.825 6328660.498 -22839430.421 10 0 60005 52200.00000 0 -11658576.692 4678789.658 -22196545.703 10 0 60005 53100.00000 0 -13921755.764 3253846.414 -21122439.320 10 0 60005 54000.00000 0 -16145206.777 2074487.737 -19638020.185 10 0 60005 54900.00000 0 -18262452.974 1148991.823 -17772160.854 10 0 60005 55800.00000 0 -20208366.193 473138.123 -15561134.968 10 0 60005 56700.00000 0 -21921768.001 30621.112 -13047911.467 10 0 60005 57600.00000 0 -23347882.625 -206021.005 -10281319.114 10 0 60005 58500.00000 0 -24440539.444 -274002.916 -7315097.464 10 0 60005 59400.00000 0 -25164033.191 -218474.429 -4206852.642 10 0 60005 60300.00000 0 -25494564.294 -90365.937 -1016938.232 10 0 60005 61200.00000 0 -25421199.222 56011.084 2192716.844 10 0 60005 62100.00000 0 -24946310.895 165506.472 5359810.501 10 0 60005 63000.00000 0 -24085480.937 184708.625 8422876.225 10 0 60005 63900.00000 0 -22866868.136 64447.190 11322474.692 10 0 60005 64800.00000 0 -21330069.793 -237885.003 14002345.073 10 0 60005 65700.00000 0 -19524523.743 -756289.246 16410493.816 10 0 60005 66600.00000 0 -17507518.005 -1514484.125 18500199.922 10 0 60005 67500.00000 0 -15341891.101 -2524665.804 20230917.651 10 0 60005 68400.00000 0 -13093518.817 -3786758.302 21569059.616 10 0 60005 69300.00000 0 -10828691.821 -5288186.155 22488645.603 10 0 60005 70200.00000 0 -8611492.851 -7004180.118 22971805.037 10 0 60005 71100.00000 0 -6501281.964 -8898604.356 23009123.765 10 0 60005 72000.00000 0 -4550393.797 -10925271.937 22599828.595 10 0 60005 72900.00000 0 -2802141.859 -13029695.086 21751806.020 10 0 60005 73800.00000 0 -1289212.124 -15151198.564 20481454.455 10 0 60005 74700.00000 0 -32512.140 -17225309.199 18813372.367 10 0 60005 75600.00000 0 959477.099 -19186322.878 16779887.649 10 0 60005 76500.00000 0 1690820.073 -20969942.621 14420436.593 10 0 60005 77400.00000 0 2177712.119 -22515877.860 11780803.747 10 0 60005 78300.00000 0 2447549.259 -23770296.393 8912236.769 10 0 60005 79200.00000 0 2537522.228 -24688026.126 5870452.944 10 0 60005 80100.00000 0 2492794.558 -25234413.919 2714556.516 10 0 60005 81000.00000 0 2364342.329 -25386762.968 -494112.087 10 0 60005 81900.00000 0 2206547.695 -25135287.760 -3693172.451 10 0 60005 82800.00000 0 2074648.857 -24483545.868 -6820421.926 10 0 60005 83700.00000 0 2022155.429 -23448327.999 -9815050.567 10 0 60005 84600.00000 0 2098339.624 -22059010.556 -12618828.932 10 0 60005 85500.00000 0 2345910.510 -20356397.811 -15177244.872 10 0 60006 0.00000 0 2798970.693 -18391102.477 -17440566.556 10 0 60006 900.00000 0 3481343.040 -16221531.625 -19364811.834 10 0 60006 1800.00000 0 4405338.343 -13911565.177 -20912602.067 10 0 60006 2700.00000 0 5571017.507 -11528020.754 -22053887.980 10 0 60006 3600.00000 0 6965979.572 -9138013.378 -22766530.680 10 0 60006 4500.00000 0 8565685.389 -6806319.131 -23036728.241 10 0 60006 5400.00000 0 10334304.037 -4592852.501 -22859279.840 10 0 60006 6300.00000 0 12226047.197 -2550361.927 -22237682.796 10 0 60006 7200.00000 0 14186936.179 -722438.757 -21184060.975 10 0 60006 8100.00000 0 16156928.314 858078.501 -19718926.185 10 0 60006 9000.00000 0 18072314.265 2170239.373 -17870777.303 10 0 60006 9900.00000 0 19868286.476 3205610.030 -15675544.899 10 0 60006 10800.00000 0 21481571.715 3968370.595 -13175892.030 10 0 60006 11700.00000 0 22853017.854 4474878.529 -10420384.640 10 0 60006 12600.00000 0 23930026.801 4752717.948 -7462547.592 10 0 60006 13500.00000 0 24668731.818 4839276.156 -4359824.598 10 0 60006 14400.00000 0 25035828.092 4779908.581 -1172462.262 10 0 60006 15300.00000 0 25009979.802 4625770.549 2037659.941 10 0 60006 16200.00000 0 24582744.766 4431408.286 5208230.860 10 0 60006 17100.00000 0 23758977.860 4252211.630 8277716.568 10 0 60006 18000.00000 0 22556696.300 4141836.620 11186553.272 10 0 60006 18900.00000 0 21006412.426 4149707.322 13878301.051 10 0 60006 19800.00000 0 19149961.778 4318702.746 16300736.118 10 0 60006 20700.00000 0 17038875.373 4683126.803 18406860.589 10 0 60006 21600.00000 0 14732363.893 5267047.275 20155810.552 10 0 60006 22500.00000 0 12294997.469 6083074.202 21513645.327 10 0 60006 23400.00000 0 9794177.281 7131629.691 22454003.095 10 0 60006 24300.00000 0 7297503.534 8400740.590 22958610.706 10 0 60006 25200.00000 0 4870148.535 9866363.746 23017638.188 10 0 60006 26100.00000 0 2572343.249 11493231.345 22629891.264 10 0 60006 27000.00000 0 457080.926 13236182.214 21802838.171 10 0 60006 27900.00000 0 -1431867.623 15041924.730 20552469.965 10 0 60006 28800.00000 0 -3061545.345 16851158.803 18902996.532 10 0 60006 29700.00000 0 -4410941.372 18600969.300 16886383.541 10 0 60006 30600.00000 0 -5471618.089 20227391.620 14541738.517 10 0 60006 31500.00000 0 -6247807.286 21668042.541 11914557.194 10 0 60006 32400.00000 0 -6755972.086 22864706.314 9055844.091 10 0 60006 33300.00000 0 -7023853.684 23765767.429 6021123.903 10 0 60006 34200.00000 0 -7089043.700 24328387.512 2869362.677 10 0 60006 35100.00000 0 -6997143.089 24520334.237 -338180.164 10 0 60006 36000.00000 0 -6799586.123 24321384.619 -3539146.386 10 0 60006 36900.00000 0 -6551222.344 23724242.829 -6671296.227 10 0 60006 37800.00000 0 -6307759.713 22734933.196 -9673724.070 10 0 60006 38700.00000 0 -6123178.151 21372651.196 -12488048.145 10 0 60006 39600.00000 0 -6047223.937 19669078.223 -15059550.376 10 0 60006 40500.00000 0 -6123091.881 17667188.584 -17338243.692 10 0 60006 41400.00000 0 -6385394.138 15419598.557 -19279845.715 10 0 60006 42300.00000 0 -6858502.241 12986526.591 -20846639.758 10 0 60006 43200.00000 0 -7555332.954 10433449.888 -22008206.524 10 0 60006 44100.00000 0 -8476629.713 7828555.161 -22742012.606 10 0 60006 45000.00000 0 -9610770.412 5240089.702 -23033844.768 10 0 60006 45900.00000 0 -10934110.080 2733722.804 -22878082.072 10 0 60006 46800.00000 0 -12411844.540 370026.799 -22277801.026 10 0 60006 47700.00000 0 -13999359.225 -1797818.139 -21244712.085 10 0 60006 48600.00000 0 -15644007.052 -3726000.940 -19798929.003 10 0 60006 49500.00000 0 -17287241.237 -5381657.160 -17968575.609 10 0 60006 50400.00000 0 -18867014.042 -6743982.657 -15789237.645 10 0 60006 51300.00000 0 -20320341.222 -7804838.417 -13303270.218 10 0 60006 52200.00000 0 -21585924.893 -8568822.774 -10558974.149 10 0 60006 53100.00000 0 -22606724.968 -9052809.526 -7609657.147 10 0 60006 54000.00000 0 -23332371.303 -9284972.808 -4512597.938 10 0 60006 54900.00000 0 -23721315.292 -9303341.091 -1327933.521 10 0 60006 55800.00000 0 -23742630.472 -9153942.412 1882508.744 10 0 60006 56700.00000 0 -23377386.382 -8888620.064 5056411.328 10 0 60006 57600.00000 0 -22619537.825 -8562611.780 8132175.570 10 0 60006 58500.00000 0 -21476291.970 -8231995.267 11050115.854 10 0 60006 59400.00000 0 -19967937.667 -7951108.454 13753615.727 10 0 60006 60300.00000 0 -18127143.776 -7770053.686 16190223.571 10 0 60006 61200.00000 0 -15997755.507 -7732391.427 18312666.787 10 0 60006 62100.00000 0 -13633138.581 -7873120.906 20079765.167 10 0 60006 63000.00000 0 -11094139.691 -8217032.985 21457226.247 10 0 60006 63900.00000 0 -8446747.581 -8777504.861 22418307.714 10 0 60006 64800.00000 0 -5759551.262 -9555787.719 22944334.546 10 0 60006 65700.00000 0 -3101100.127 -10540817.860 23025061.253 10 0 60006 66600.00000 0 -537274.725 -11709560.062 22658872.422 10 0 60006 67500.00000 0 1871223.586 -13027869.708 21852817.654 10 0 60006 68400.00000 0 4071160.802 -14451838.681 20622479.978 10 0 60006 69300.00000 0 6018741.992 -15929569.683 18991679.786 10 0 60006 70200.00000 0 7681185.417 -17403305.682 16992019.367 10 0 60006 71100.00000 0 9037834.186 -18811826.061 14662276.082 10 0 60006 72000.00000 0 10080759.757 -20093009.584 12047655.207 10 0 60006 72900.00000 0 10814832.690 -21186456.859 9198916.246 10 0 60006 73800.00000 0 11257258.365 -22036062.120 6171389.188 10 0 60006 74700.00000 0 11436597.804 -22592425.816 3023899.588 10 0 60006 75600.00000 0 11391315.590 -22815005.847 -182376.591 10 0 60006 76500.00000 0 11167916.845 -22673916.084 -3385105.839 10 0 60006 77400.00000 0 10818752.827 -22151295.446 -6522013.869 10 0 60006 78300.00000 0 10399588.797 -21242188.936 -9532101.988 10 0 60006 79200.00000 0 9967037.944 -19954902.611 -12356838.657 10 0 60006 80100.00000 0 9575970.857 -18310816.780 -14941302.353 10 0 60006 81000.00000 0 9277010.961 -16343664.598 -17235252.949 10 0 60006 81900.00000 0 9114222.571 -14098305.838 -19194110.439 10 0 60006 82800.00000 0 9123089.860 -11629046.837 -20779821.828 10 0 60006 83700.00000 0 9328872.526 -8997576.624 -21961599.456 10 0 60006 84600.00000 0 9745407.897 -6270605.102 -22716516.716 10 0 60006 85500.00000 0 10374410.154 -3517301.552 -23029950.009 10 0 60007 0.00000 0 11205296.301 -806639.936 -22895858.878 10 0 60007 900.00000 0 12215546.841 1795240.465 -22316899.198 10 0 60007 1800.00000 0 13371585.006 4227546.408 -21304367.869 10 0 60007 2700.00000 0 14630139.269 6437115.268 -19877980.132 10 0 60007 3600.00000 0 15940031.048 8380375.236 -18065483.995 10 0 60007 4500.00000 0 17244313.145 10024902.162 -15902119.297 10 0 60007 5400.00000 0 18482669.207 11350509.250 -13429931.793 10 0 60007 6300.00000 0 19593973.576 12349825.537 -10696955.453 10 0 60007 7200.00000 0 20518903.999 13028340.445 -7756278.768 10 0 60007 8100.00000 0 21202497.378 13403914.007 -4665013.118 10 0 60007 9000.00000 0 21596541.002 13505774.751 -1483183.267 10 0 60007 9900.00000 0 21661698.513 13373048.661 1727438.347 10 0 60007 10800.00000 0 21369280.974 13052882.305 4904530.731 10 0 60007 11700.00000 0 20702588.248 12598240.189 7986433.409 10 0 60007 12600.00000 0 19657763.956 12065469.983 10913341.804 10 0 60007 13500.00000 0 18244127.677 11511738.887 13628465.651 10 0 60007 14400.00000 0 16483969.939 10992449.622 16079128.066 10 0 60007 15300.00000 0 14411817.984 10558745.220 18217784.094 10 0 60007 16200.00000 0 12073202.344 10255207.839 20002939.367 10 0 60007 17100.00000 0 9522974.899 10117848.507 21399951.538 10 0 60007 18000.00000 0 6823247.662 10172472.439 22381699.429 10 0 60007 18900.00000 0 4041037.129 10433488.722 22929107.459 10 0 60007 19800.00000 0 1245711.036 10903214.604 23031515.579 10 0 60007 20700.00000 0 -1493657.418 11571704.010 22686887.774 10 0 60007 21600.00000 0 -4110919.148 12417108.027 21901855.090 10 0 60007 22500.00000 0 -6545354.403 13406552.994 20691592.120 10 0 60007 23400.00000 0 -8743950.485 14497500.147 19079528.848 10 0 60007 24300.00000 0 -10663358.140 15639530.624 17096902.795 10 0 60007 25200.00000 0 -12271445.930 16776481.637 14782159.354 10 0 60007 26100.00000 0 -13548388.393 17848844.653 12180211.180 10 0 60007 27000.00000 0 -14487243.133 18796325.084 9341570.333 10 0 60007 27900.00000 0 -15093993.244 19560455.833 6321369.466 10 0 60007 28800.00000 0 -15387053.848 20087154.308 3178290.871 10 0 60007 29700.00000 0 -15396264.104 20329114.603 -26575.798 10 0 60007 30600.00000 0 -15161407.858 20247933.143 -3230924.659 10 0 60007 31500.00000 0 -14730326.055 19815877.134 -6372449.817 10 0 60007 32400.00000 0 -14156701.484 19017220.187 -9390062.370 10 0 60007 33300.00000 0 -13497610.319 17849087.699 -12225083.786 10 0 60007 34200.00000 0 -12810944.807 16321775.382 -14822391.699 10 0 60007 35100.00000 0 -12152816.859 14458526.593 -17131495.301 10 0 60007 36000.00000 0 -11575052.910 12294777.038 -19107519.057 10 0 60007 36900.00000 0 -11122886.384 9876897.853 -20712075.443 10 0 60007 37800.00000 0 -10832945.484 7260489.127 -21914009.874 10 0 60007 38700.00000 0 -10731621.324 4508294.669 -22690003.628 10 0 60007 39600.00000 0 -10833885.171 1687824.575 -23025023.450 10 0 60007 40500.00000 0 -11142604.502 -1131215.850 -22912609.616 10 0 60007 41400.00000 0 -11648386.494 -3879584.391 -22354997.317 10 0 60007 42300.00000 0 -12329955.326 -6491137.522 -21363069.395 10 0 60007 43200.00000 0 -13155047.284 -8905334.514 -19956141.628 10 0 60007 44100.00000 0 -14081785.894 -11069506.864 -18161584.855 10 0 60007 45000.00000 0 -15060479.203 -12940799.615 -16014291.295 10 0 60007 45900.00000 0 -16035763.523 -14487704.896 -13555995.341 10 0 60007 46800.00000 0 -16949003.466 -15691124.999 -10834461.872 10 0 60007 47700.00000 0 -17740847.138 -16544921.873 -7902557.764 10 0 60007 48600.00000 0 -18353828.836 -17055931.422 -4817224.560 10 0 60007 49500.00000 0 -18734909.478 -17243443.353 -1638372.241 10 0 60007 50400.00000 0 -18837847.485 -17138169.669 1572284.262 10 0 60007 51300.00000 0 -18625299.995 -16780746.362 4752423.090 10 0 60007 52200.00000 0 -18070565.524 -16219832.364 7840324.566 10 0 60007 53100.00000 0 -17158894.272 -15509886.657 10776067.737 10 0 60007 54000.00000 0 -15888310.475 -14708717.826 13502691.057 10 0 60007 54900.00000 0 -14269911.602 -13874909.683 15967294.769 10 0 60007 55800.00000 0 -12327631.131 -13065231.617 18122063.767 10 0 60007 56700.00000 0 -10097473.987 -12332142.713 19925191.463 10 0 60007 57600.00000 0 -7626255.624 -11721494.527 21341687.228 10 0 60007 58500.00000 0 -4969896.312 -11270528.925 22344052.252 10 0 60007 59400.00000 0 -2191340.514 -11006254.911 22912811.237 10 0 60007 60300.00000 0 641813.296 -10944272.485 23036890.033 10 0 60007 61200.00000 0 3459875.109 -11088092.874 22713832.114 10 0 60007 62100.00000 0 6193712.927 -11428983.818 21949849.733 10 0 60007 63000.00000 0 8777380.500 -11946346.717 20759708.501 10 0 60007 63900.00000 0 11150615.113 -12608610.257 19166447.181 10 0 60007 64800.00000 0 13261102.481 -13374603.515 17200937.438 10 0 60007 65700.00000 0 15066415.234 -14195351.395 14901291.327 10 0 60007 66600.00000 0 16535544.781 -15016217.330 12312127.230 10 0 60007 67500.00000 0 17649963.072 -15779303.346 9483707.797 10 0 60007 68400.00000 0 18404170.301 -16426006.435 6470966.083 10 0 60007 69300.00000 0 18805705.968 -16899623.184 3332438.584 10 0 60007 70200.00000 0 18874623.309 -17147892.263 129125.887 10 0 60007 71100.00000 0 18642449.741 -17125366.648 -3076696.642 10 0 60007 72000.00000 0 18150677.702 -16795514.424 -6222694.431 10 0 60007 72900.00000 0 17448850.274 -16132458.330 -9247691.261 10 0 60007 73800.00000 0 16592323.137 -15122279.463 -12092864.377 10 0 60007 74700.00000 0 15639798.132 -13763828.954 -14702893.170 10 0 60007 75600.00000 0 14650733.334 -12069012.339 -17027038.533 10 0 60007 76500.00000 0 13682739.561 -10062533.612 -19020131.519 10 0 60007 77400.00000 0 12789073.671 -7781108.821 -20643451.903 10 0 60007 78300.00000 0 12016334.591 -5272181.367 -21865479.670 10 0 60007 79200.00000 0 11402459.201 -2592192.030 -22662505.104 10 0 60007 80100.00000 0 10975102.307 195524.662 -23019086.036 10 0 60007 81000.00000 0 10750468.552 3023130.639 -22928343.853 10 0 60007 81900.00000 0 10732644.905 5820862.171 -22392093.003 10 0 60007 82800.00000 0 10913461.306 8519688.820 -21420801.864 10 0 60007 83700.00000 0 11272884.773 11053943.626 -20033386.031 10 0 60007 84600.00000 0 11779929.886 13363815.949 -18256838.133 10 0 60007 85500.00000 0 12394046.928 15397604.126 -16125701.440 99